SL-14 R/B

Satellite information

Favourite Embed

Satellite Type and Status

ROCKET BODYIN ORBIT

Key statistics

Satellite SL-14 R/B at a glance.

Uptime

15136

Days in orbit

Revolutions

≈ 13.8

Per day

Orbit

LEO

Low Earth Orbit

Inclination

82.5

Latest

Satellite identification and parameters

Extended collection of information and parameters for SL-14 R/B.

Object identification

Identified? True

Debris? False

Object name: SL-14 R/B

International designator: 1984-072B

Object number (NORAD): 15100

Object ID (CCSDS): 15100

Country: COMMONWEALTH OF INDEPENDENT STATES (CIS)

Current information (Y/N): Y

RCS size: LARGE

Orbital parameters

Period: 104.005 minutes

Inclination: 82.5297 deg

SMA: 7325.936 km

Apoapsis: 955.654 km

Periapsis: 939.947 km

RAAN: 194.0566 deg

Eccentricy: 0.00107202

Argument of periapsis: 286.6416 deg

Mean anomaly: 73.3567 deg

Mean motion: 13.84548268 rev/day

Mean motion (dot): 0.00000035 rev/day2

B* drag term: 0.000018456422 1/REarth

Two-line elements (TLE)

Creation date: Dec. 12, 2025, 10:14 a.m.

Reference frame: TEME

Reference center: EARTH

Epoch: Dec. 12, 2025, 2:03 a.m. UTC

TLE line 0: 0 SL-14 R/B

TLE line 1: 1 15100U 84072B 25346.08562649 .00000035 00000-0 18456-4 0 9994

TLE line 2: 2 15100 82.5297 194.0566 0010720 286.6416 73.3567 13.84548268 93581

Live tracking on map

Real-time ground track for satellite SL-14 R/B.

In-orbit conjunctions

A list of the most updated potential collisions computed for object SL-14 R/B.

Target Orbit TCA Probability of collision Miss distance Type
FENGYUN 1C DEB SSO 2025-12-13 15:42:38 0.0001788431 132.0 (m) DEBRIS
CZ-6A DEB LEO 2025-02-28 17:02:06 0.00222476 56.0 (m) DEBRIS
CZ-6A DEB LEO 2024-11-10 03:09:41 0.0004087734 568.0 (m) DEBRIS

Associated space launch

Second generation soviet meteorological satellite

SL-14 R/B was lifted into orbit during the mission ‘Tsiklon-3 | Meteor-2 11’, on board a Tsiklon-3 space rocket.

The launch took place on July 5, 1984, 3:35 a.m. from 32/2.

For more information about the launch, click the button.

Launch to space Tsiklon-3 | Meteor-2 11
Tsiklon-3 | Meteor-2 11

Agency: N/A

Status: Launch Successful

Launch date: July 5, 1984, 3:35 a.m. UTC

Rocket: Tsiklon-3

Launch pad: 32/2

Location: Plesetsk Cosmodrome, Russian Federation

...

Latest news about this satellite

There are no fresh news available about this satellite. Check back as we update our databases every day.


Newsletter sign-up

Weekly statistics, charts and insights to help you stay on top of the space industry.